Address 0x9a79c78bcbb1c6d9e404e59593dc35a534fd34c0

 
Txn Hash Method
Block
From
To
Value [Txn Fee]
0x57d32a6c2d16a08e3e6aa9b96fe4d596a4bf3f502d6eac6340c0c5e03554ad4cSell149322732021-05-26 0:47:19189 days 1 hr ago0x9a79c78bcbb1c6d9e404e59593dc35a534fd34c0OUT 0x73d852ebe31ec9a4081dd65fb78c45d4b645ea3c0 MATIC0.000109892
0xbb947dfb0c11b2a6da35a947e45f7570dc8e8f36b0e5f5b9767cdc18e380f67dSplit Position149322732021-05-26 0:47:19189 days 1 hr ago0x9a79c78bcbb1c6d9e404e59593dc35a534fd34c0OUT 0x4d97dcd97ec945f40cf65f87097ace5ea04760450 MATIC0.000226762
0xea2dc9b18f8d04941207e776ece575c8fbc96725e5887970db071f72af34bb96Increase Allowan...149322732021-05-26 0:47:19189 days 1 hr ago0x9a79c78bcbb1c6d9e404e59593dc35a534fd34c0OUT USD Coin0 MATIC0.000041307
0x01acc9704efa9623118c98cea93f32fe5c5d4ffe63e6101340d609d47069ce7fSet Approval For...149322722021-05-26 0:47:17189 days 1 hr ago0x9a79c78bcbb1c6d9e404e59593dc35a534fd34c0OUT 0x4d97dcd97ec945f40cf65f87097ace5ea04760450 MATIC0.000026096
0x8e0b9db8cdaef7d48f3ceaee04992b77097d0801caaf8f20313687b8b3d62a8cIncrease Allowan...149322722021-05-26 0:47:17189 days 1 hr ago0x9a79c78bcbb1c6d9e404e59593dc35a534fd34c0OUT USD Coin0 MATIC0.000041307
0x1c8fa954e3c7ac2ae4e19f217383ac56a51a1300c1c24ee22417ece1067b43efSell149291382021-05-25 22:53:21189 days 3 hrs ago0x9a79c78bcbb1c6d9e404e59593dc35a534fd34c0OUT 0x73d852ebe31ec9a4081dd65fb78c45d4b645ea3c0 MATIC0.000109892
0x56ebe25a146fed711dd7c4d3b543d1a9425fa334bba7429276baee4eb5f8e9dfSplit Position149291382021-05-25 22:53:21189 days 3 hrs ago0x9a79c78bcbb1c6d9e404e59593dc35a534fd34c0OUT 0x4d97dcd97ec945f40cf65f87097ace5ea04760450 MATIC0.000226762
0x3b71f1f39dbd899e581be1c25b2e8c86757b2052210de67e3bfeaab924407410Increase Allowan...149291372021-05-25 22:53:19189 days 3 hrs ago0x9a79c78bcbb1c6d9e404e59593dc35a534fd34c0OUT USD Coin0 MATIC0.000041307
0x557384031aaffeee57903a4adc52b9629a988a4a9e5fdb002ca029a64975e51fSet Approval For...149291372021-05-25 22:53:19189 days 3 hrs ago0x9a79c78bcbb1c6d9e404e59593dc35a534fd34c0OUT 0x4d97dcd97ec945f40cf65f87097ace5ea04760450 MATIC0.000026096
0xc5ca51e35259fd11bf66167b7d83853227ba5d4a25c61e7ebdf9d7c0a2b554dbIncrease Allowan...149291372021-05-25 22:53:19189 days 3 hrs ago0x9a79c78bcbb1c6d9e404e59593dc35a534fd34c0OUT USD Coin0 MATIC0.000041307
0xfaab3697e29800f2f60b470660e27e3bdcfcb063fb1e8deb32d526ec0728af2dSplit Position149291012021-05-25 22:52:07189 days 3 hrs ago0x9a79c78bcbb1c6d9e404e59593dc35a534fd34c0OUT 0x4d97dcd97ec945f40cf65f87097ace5ea04760450 MATIC0.000226762
0x50c227be799a7b7e0512e3e3e0fe775f5468cc9f167a5cfe05e17a3a4869ce60Increase Allowan...149291012021-05-25 22:52:07189 days 3 hrs ago0x9a79c78bcbb1c6d9e404e59593dc35a534fd34c0OUT USD Coin0 MATIC0.000041307
0x9241e38337fb7cd15f106e5684cd4c9af7625fa1f7436ddb9ae661035e0ca1a8Set Approval For...149291012021-05-25 22:52:07189 days 3 hrs ago0x9a79c78bcbb1c6d9e404e59593dc35a534fd34c0OUT 0x4d97dcd97ec945f40cf65f87097ace5ea04760450 MATIC0.000026096
0x5ab77145f7dffd9558a556bc0aa0ee8daacba8bce1e2b9c36b7b2ef426a5f468Increase Allowan...149291002021-05-25 22:52:05189 days 3 hrs ago0x9a79c78bcbb1c6d9e404e59593dc35a534fd34c0OUT USD Coin0 MATIC0.000041307
0xf644882a2e69f65d7587c169b309948304b1aa8085329f47015295f72fff283cSplit Position149290652021-05-25 22:50:51189 days 3 hrs ago0x9a79c78bcbb1c6d9e404e59593dc35a534fd34c0OUT 0x4d97dcd97ec945f40cf65f87097ace5ea04760450 MATIC0.000295162
0xb4d3890e010f27b6247caf765256c9ac90c5d96414f4ca054b3b30ddb5556259Increase Allowan...149290652021-05-25 22:50:51189 days 3 hrs ago0x9a79c78bcbb1c6d9e404e59593dc35a534fd34c0OUT USD Coin0 MATIC0.000041307
0x2052744caae6336576634546e41b46978984cd5c0d0f9ac5ab304a420adf6e52Set Approval For...149290642021-05-25 22:50:49189 days 3 hrs ago0x9a79c78bcbb1c6d9e404e59593dc35a534fd34c0OUT 0x4d97dcd97ec945f40cf65f87097ace5ea04760450 MATIC0.000026096
0xb7063b871e44cc015238e5203590e84875e3ad26187ac0447061fb31a75c3950Increase Allowan...149290642021-05-25 22:50:49189 days 3 hrs ago0x9a79c78bcbb1c6d9e404e59593dc35a534fd34c0OUT USD Coin0 MATIC0.000041307
0xe3623f46e7127f47389ed0aff775a6e9d0564839b29db38e793820719c92fe5aSplit Position149289702021-05-25 22:47:27189 days 3 hrs ago0x9a79c78bcbb1c6d9e404e59593dc35a534fd34c0OUT 0x4d97dcd97ec945f40cf65f87097ace5ea04760450 MATIC0.000151806
0x11e94f03cb64d41d9764dea52c99908bcabc3f2d41ee68f4c43354742af2e0d8Increase Allowan...149289702021-05-25 22:47:27189 days 3 hrs ago0x9a79c78bcbb1c6d9e404e59593dc35a534fd34c0OUT USD Coin0 MATIC0.000041307
0xc5ef37ba9f1573fbd31e1470aa4a6a7bd2be4815b25a5fac8b7c961ce2da07b1Set Approval For...149289692021-05-25 22:47:25189 days 3 hrs ago0x9a79c78bcbb1c6d9e404e59593dc35a534fd34c0OUT 0x4d97dcd97ec945f40cf65f87097ace5ea04760450 MATIC0.000026096
0xcece3e4670be7a9ff574205e39c1d1f64fdeffd41cb37d9de53b21a54733dd84Increase Allowan...149289692021-05-25 22:47:25189 days 3 hrs ago0x9a79c78bcbb1c6d9e404e59593dc35a534fd34c0OUT USD Coin0 MATIC0.000041307
0x2b3e8e91755b1fd1b25a2df75f40470ac960d6b6d6530b5343ef076830c10998Split Position149255772021-05-25 20:43:13189 days 5 hrs ago0x9a79c78bcbb1c6d9e404e59593dc35a534fd34c0OUT 0x4d97dcd97ec945f40cf65f87097ace5ea04760450 MATIC0.000151806
0xf15e8c34e56d5aac64e6a10a208661225b4b10479af6459f8906922fd06ae866Increase Allowan...149255772021-05-25 20:43:13189 days 5 hrs ago0x9a79c78bcbb1c6d9e404e59593dc35a534fd34c0OUT USD Coin0 MATIC0.000058407
0xbc73f0c26e521f45355c72b9d936b25d26cc6d9641b98240a2023d9dbb4db435Set Approval For...149255772021-05-25 20:43:13189 days 5 hrs ago0x9a79c78bcbb1c6d9e404e59593dc35a534fd34c0OUT 0x4d97dcd97ec945f40cf65f87097ace5ea04760450 MATIC0.000045996
[ Download CSV Export 
Parent Txn Hash Block From To Value
Loading

Contract Name:
0 MATIC

Compiler Version
0

Optimization Enabled:
0 MATIC

Other Settings:
-NA-
Block Transaction Gas Used Reward
Age Block Fee Address BC Fee Address Voting Power Jailed Incoming
Block Uncle Number Difficulty Gas Used Reward
Loading
Loading
Make sure to use the "Vote Down" button for any spammy posts, and the "Vote Up" for interesting conversations.